Le nostre stazioni meteo in Italia

Pubblicità
Il mio iltempo24.it
Casale Monferrato, Italia (16068): Temperatura & dewpoint: 10.07.2018 20:00:00 - 16.07.2018 20:00:00 (CEST)Casale Monferrato, Italia (16068): velocità del vento: 10.07.2018 20:00:00 - 16.07.2018 20:00:00 (CEST)Casale Monferrato, Italia (16068): direzione del vento: 10.07.2018 20:00:00 - 16.07.2018 20:00:00 (CEST)Casale Monferrato, Italia (16068): reduced air pressure: 10.07.2018 20:00:00 - 16.07.2018 20:00:00 (CEST)Casale Monferrato, Italia (16068): precipitazioni: 10.07.2018 20:00:00 - 16.07.2018 20:00:00 (CEST)
Data & Tempo tt [°C] td [°C] ff [km/h] ff [kn] dd ppp [hPa] rr [mm]
16.07.2018 20:00:00 - - - - - - -
16.07.2018 19:00:00 20,9 19,5 4 2 NNE 1009,9 -
16.07.2018 18:00:00 21,0 19,8 4 2 ESE 1010,3 -
16.07.2018 17:00:00 20,2 19,0 11 6 SE 1010,5 -
16.07.2018 16:00:00 19,6 18,6 4 2 ONO 1011,2 -
16.07.2018 15:00:00 19,5 17,9 18 10 SSE - -
16.07.2018 14:00:00 24,5 22,1 9 5 NNO - 0,0
16.07.2018 13:00:00 25,0 23,0 8 4 NNE 1011,5 -
16.07.2018 12:00:00 23,6 21,8 9 5 NNE 1012,3 -
16.07.2018 11:00:00 23,4 21,8 8 4 NNE 1012,7 -
16.07.2018 10:00:00 23,0 21,2 11 6 NE 1013,0 -
16.07.2018 09:00:00 22,5 20,9 8 4 NE 1013,1 -
16.07.2018 08:00:00 21,5 20,1 8 4 NNE 1012,9 0,0
16.07.2018 07:00:00 20,6 19,5 2 1 ONO 1012,7 -
16.07.2018 06:00:00 18,8 17,4 5 3 ESE 1012,6 -
16.07.2018 05:00:00 20,2 18,8 4 2 OSO 1012,3 -
16.07.2018 04:00:00 20,5 18,9 2 1 OSO 1012,0 -
16.07.2018 03:00:00 21,1 19,3 2 1 SO 1012,6 -
16.07.2018 02:00:00 22,7 20,9 8 4 SO 1012,8 0,0
16.07.2018 01:00:00 23,2 20,1 4 2 O 1012,8 -
16.07.2018 00:00:00 24,2 19,8 4 2 SSO - -
15.07.2018 23:00:00 24,5 22,1 2 1 OSO - -
15.07.2018 22:00:00 24,9 22,1 5 3 SSE - -
15.07.2018 21:00:00 27,2 22,1 0 0 N - -
15.07.2018 20:00:00 28,0 22,4 4 2 NNE - 0,0
15.07.2018 19:00:00 28,7 22,4 8 4 NNE - -
15.07.2018 18:00:00 29,0 21,7 9 5 NNE - -
15.07.2018 17:00:00 29,2 22,4 5 3 NE - -
15.07.2018 16:00:00 29,6 21,8 4 2 SE - -
15.07.2018 15:00:00 28,6 21,3 8 4 ESE - -
15.07.2018 14:00:00 27,8 20,6 5 3 N - 0,0
15.07.2018 13:00:00 27,0 21,2 5 3 NNO - -
15.07.2018 12:00:00 26,2 22,4 4 2 NE 1014,6 -
15.07.2018 11:00:00 24,5 21,4 5 3 NO 1015,1 -
15.07.2018 10:00:00 23,5 21,7 4 2 ENE 1015,3 -
15.07.2018 09:00:00 22,1 20,1 5 3 NNO 1015,2 -
15.07.2018 08:00:00 21,3 19,9 4 2 NNE 1015,1 0,0
15.07.2018 07:00:00 18,5 17,3 4 2 OSO 1015,1 -
15.07.2018 06:00:00 18,1 16,7 5 3 O 1015,2 -
15.07.2018 05:00:00 18,2 16,8 0 0 N 1015,2 -
15.07.2018 04:00:00 18,7 17,1 0 0 N 1015,4 -
15.07.2018 03:00:00 20,1 18,5 4 2 O 1015,5 -
15.07.2018 02:00:00 20,8 19,2 4 2 O 1015,7 0,0
15.07.2018 01:00:00 21,7 19,9 5 3 NNO 1016,3 -
15.07.2018 00:00:00 21,9 20,1 4 2 NO 1015,8 -
14.07.2018 23:00:00 22,4 20,6 2 1 O 1015,7 -
14.07.2018 22:00:00 22,4 20,6 5 3 SO 1015,6 -
14.07.2018 21:00:00 23,3 21,5 5 3 O 1014,7 -
14.07.2018 20:00:00 23,6 21,1 11 6 NO - -
14.07.2018 19:00:00 23,2 21,8 4 2 SE - -
14.07.2018 18:00:00 24,0 22,4 8 4 ONO - -
14.07.2018 17:00:00 28,4 22,6 11 6 N - -
14.07.2018 16:00:00 30,0 22,7 8 4 ESE - -
14.07.2018 15:00:00 29,6 24,0 5 3 NO - -
14.07.2018 14:00:00 28,7 21,7 8 4 N - 0,0
14.07.2018 13:00:00 28,2 20,4 5 3 N - -
14.07.2018 12:00:00 27,4 22,5 8 4 NE - -
14.07.2018 11:00:00 26,0 22,4 4 2 N 1017,6 -
14.07.2018 10:00:00 25,0 22,6 2 1 NO 1018,0 -
14.07.2018 09:00:00 23,7 22,3 4 2 N 1017,9 -
14.07.2018 08:00:00 21,0 19,8 2 1 SSO 1018,1 0,0
14.07.2018 07:00:00 18,8 17,2 0 0 N 1018,1 -
14.07.2018 06:00:00 18,8 17,2 2 1 SO 1017,7 -
14.07.2018 05:00:00 18,5 16,8 2 1 OSO 1017,4 -
14.07.2018 04:00:00 18,9 16,8 4 2 O 1017,5 -
14.07.2018 03:00:00 19,5 17,2 0 0 N 1017,1 -
14.07.2018 02:00:00 19,8 17,7 2 1 O 1017,0 0,0
14.07.2018 01:00:00 20,6 17,5 2 1 ESE 1016,9 -
14.07.2018 00:00:00 21,7 17,2 4 2 SSO - -
13.07.2018 23:00:00 23,4 16,8 4 2 SSO - -
13.07.2018 22:00:00 24,6 16,2 8 4 SSO - -
13.07.2018 21:00:00 27,2 23,0 5 3 ENE - -
13.07.2018 20:00:00 28,6 23,0 5 3 NNE - 0,0
13.07.2018 19:00:00 29,2 23,1 8 4 NNE - -
13.07.2018 18:00:00 30,8 22,1 4 2 SSE - -
13.07.2018 17:00:00 29,9 21,3 5 3 SO - -
13.07.2018 16:00:00 30,2 22,3 4 2 SSO - -
13.07.2018 15:00:00 28,2 22,4 4 2 N - -
13.07.2018 14:00:00 27,8 23,1 5 3 NO - 0,0
13.07.2018 13:00:00 26,5 22,3 2 1 N - -
13.07.2018 12:00:00 25,8 22,6 2 1 NO 1017,4 -
13.07.2018 11:00:00 25,1 23,1 2 1 SO 1017,5 -
13.07.2018 10:00:00 24,0 22,4 2 1 OSO 1017,5 -
13.07.2018 09:00:00 22,2 21,0 0 0 N 1017,5 -
13.07.2018 08:00:00 21,1 20,0 0 0 N 1017,3 -
13.07.2018 07:00:00 18,8 17,8 0 0 N 1017,1 -
13.07.2018 06:00:00 18,8 17,8 4 2 OSO 1017,0 -
13.07.2018 05:00:00 19,2 18,2 4 2 O 1016,5 -
13.07.2018 04:00:00 19,1 17,9 2 1 O 1016,4 -
13.07.2018 03:00:00 19,8 18,6 4 2 O 1016,0 -
13.07.2018 02:00:00 20,0 18,8 4 2 SO 1016,0 -
13.07.2018 01:00:00 20,3 18,9 0 0 N 1015,7 -
13.07.2018 00:00:00 21,4 20,0 5 3 NO 1015,5 -
12.07.2018 23:00:00 22,6 21,0 8 4 O 1015,3 -
12.07.2018 22:00:00 23,3 21,7 5 3 ONO - -
12.07.2018 21:00:00 24,3 22,5 2 1 O - -
12.07.2018 20:00:00 24,9 22,3 5 3 SSE - 0,0
12.07.2018 19:00:00 25,8 21,8 5 3 ENE - -
12.07.2018 18:00:00 26,6 22,8 8 4 ENE - -
12.07.2018 17:00:00 27,0 22,3 8 4 ENE - -
12.07.2018 16:00:00 27,6 23,6 5 3 ONO - -
12.07.2018 15:00:00 26,1 22,1 5 3 SO - -
12.07.2018 14:00:00 25,6 22,8 5 3 ESE 1014,5 0,0
12.07.2018 13:00:00 24,4 22,8 5 3 ESE 1015,0 -
12.07.2018 12:00:00 23,5 21,9 4 2 NNE 1014,8 -
12.07.2018 11:00:00 22,3 20,9 4 2 N 1014,7 -
12.07.2018 10:00:00 21,5 20,3 4 2 NNE 1014,7 -
12.07.2018 09:00:00 21,2 20,0 5 3 NNE 1014,5 -
12.07.2018 08:00:00 20,8 19,6 4 2 NNE 1014,0 0,0
12.07.2018 07:00:00 20,6 19,4 4 2 N 1013,8 -
12.07.2018 06:00:00 20,4 19,3 5 3 NE 1013,6 -
12.07.2018 05:00:00 20,4 19,3 4 2 ENE 1013,3 -
12.07.2018 04:00:00 20,5 19,3 5 3 ENE 1013,2 -
12.07.2018 03:00:00 20,7 19,5 4 2 E 1013,3 -
12.07.2018 02:00:00 20,8 19,4 2 1 N 1013,3 0,0
12.07.2018 01:00:00 21,0 19,6 2 1 N 1013,2 -
12.07.2018 00:00:00 21,1 19,7 0 0 N 1013,0 -
11.07.2018 23:00:00 21,2 19,6 0 0 N 1012,6 -
11.07.2018 22:00:00 21,9 20,1 4 2 E - -
11.07.2018 21:00:00 23,3 20,8 8 4 ENE - -
11.07.2018 20:00:00 24,5 21,2 8 4 NE - 0,0
11.07.2018 19:00:00 24,8 20,8 9 5 ENE - -
11.07.2018 18:00:00 25,4 21,6 8 4 NNE - -
11.07.2018 17:00:00 25,4 21,6 9 5 E - -
11.07.2018 16:00:00 25,0 21,2 9 5 E - -
11.07.2018 15:00:00 24,0 21,5 11 6 ENE - -
11.07.2018 14:00:00 23,8 20,9 11 6 E - 0,0
11.07.2018 13:00:00 23,0 20,5 15 8 NE 1011,6 -
11.07.2018 12:00:00 22,5 20,0 13 7 NE 1011,6 -
11.07.2018 11:00:00 22,4 20,3 15 8 ENE 1011,5 -
11.07.2018 10:00:00 21,6 19,6 13 7 NNE 1011,5 -
11.07.2018 09:00:00 20,9 18,6 9 5 NE 1011,3 -
11.07.2018 08:00:00 20,8 18,5 13 7 ENE 1011,0 0,0
11.07.2018 07:00:00 20,6 19,2 9 5 NNE 1010,5 -
11.07.2018 06:00:00 20,8 19,2 9 5 E 1010,1 -
11.07.2018 05:00:00 21,4 19,8 8 4 E 1009,9 -
11.07.2018 04:00:00 22,1 20,3 8 4 E 1010,1 -
11.07.2018 03:00:00 21,1 19,5 0 0 N 1009,7 -
11.07.2018 02:00:00 20,9 19,3 0 0 N 1009,8 0,0
11.07.2018 01:00:00 21,2 18,7 2 1 S 1009,9 -
11.07.2018 00:00:00 22,1 18,8 4 2 S - -
10.07.2018 23:00:00 23,1 19,4 11 6 S - -
10.07.2018 22:00:00 24,2 19,0 8 4 S - -
10.07.2018 21:00:00 25,9 18,5 9 5 SSO - -
10.07.2018 20:00:00 27,8 20,3 15 8 S - 0,0

tt = Temperatura
td = dewpoint
ff = velocità del vento
dd = direzione del vento
ppp = reduced air pressure
rr = precipitazioni

Stazioni seguenti

WeatherPro
AMSI
MeteoEarth